{"data":{"norad_id":57414,"epoch":"2026-09-20T13:24:08.625888Z","epoch_age_seconds":122920,"freshness":"FRESH","line1":"1 57414U 23102L   26263.55843317  .00068907  00000+0  59542-3 0  9991","line2":"2 57414  42.9976 201.7797 0008819 178.4523 181.6372 15.68258960176348","mean_motion":15.6825896,"eccentricity":0.0008819,"inclination_deg":42.9976,"raan_deg":201.7797,"arg_perigee_deg":178.4523,"mean_anomaly_deg":181.6372,"bstar":0.00059542,"rev_number":17634,"period_min":91.821570080492,"perigee_km":357.93648597656,"apogee_km":369.82805956987,"semimajor_km":6742.0192727732,"source":"CELESTRAK","updated_at":"2026-09-21T09:00:33.624707Z"}}